Total_Precipitation_Accumulation
0.47 0.64 1.18 1.59 1.72 1.00 0.54 0.34 0.19 0.20 0.16 0.08 0.05 0.06 0.16 0.39 0.54 0.62 0.50 0.40 0.33 0.31 0.25 0.29 0.37 0.35 0.31 0.31 0.33 0.34 0.34 0.33 0.34 0.33 0.29 0.28 0.21 0.16 0.11 0.08 0.07 0.06 0.07 0.12 0.12 0.14 0.14 0.19 0.25
0.39 0.85 1.53 1.92 1.25 0.64 0.55 0.41 0.31 0.20 0.13 0.08 0.05 0.05 0.11 0.11 0.15 0.36 0.65 0.63 0.36 0.31 0.28 0.35 0.43 0.42 0.42 0.43 0.46 0.43 0.41 0.36 0.38 0.36 0.32 0.28 0.23 0.17 0.18 0.19 0.11 0.08 0.07 0.08 0.09 0.10 0.13 0.21 0.28
0.56 1.25 1.92 1.67 0.81 0.56 0.61 0.47 0.34 0.19 0.11 0.07 0.06 0.06 0.11 0.15 0.33 0.60 0.77 0.59 0.40 0.34 0.30 0.43 0.54 0.48 0.48 0.52 0.62 0.62 0.56 0.47 0.40 0.38 0.35 0.31 0.27 0.25 0.30 0.20 0.13 0.10 0.08 0.07 0.09 0.11 0.14 0.22 0.29
0.77 1.46 1.79 1.13 0.74 0.68 0.59 0.49 0.32 0.22 0.12 0.05 0.06 0.08 0.09 0.19 0.42 0.66 0.62 0.46 0.34 0.32 0.31 0.47 0.68 0.60 0.57 0.60 0.74 0.67 0.60 0.56 0.46 0.46 0.45 0.44 0.39 0.38 0.35 0.26 0.22 0.17 0.12 0.10 0.11 0.14 0.15 0.22 0.28
0.91 1.41 1.44 1.24 0.80 0.81 0.58 0.42 0.27 0.23 0.17 0.09 0.07 0.17 0.18 0.30 0.50 0.63 0.60 0.49 0.40 0.39 0.35 0.46 0.72 0.66 0.61 0.65 0.75 0.71 0.67 0.69 0.57 0.50 0.50 0.49 0.46 0.46 0.44 0.41 0.32 0.25 0.19 0.17 0.16 0.14 0.14 0.19 0.26
0.98 1.24 1.36 1.41 0.92 0.87 0.67 0.52 0.31 0.27 0.21 0.16 0.13 0.24 0.27 0.36 0.46 0.61 0.64 0.65 0.61 0.55 0.44 0.44 0.62 0.61 0.59 0.69 0.78 0.81 0.77 0.72 0.61 0.58 0.57 0.53 0.51 0.55 0.54 0.51 0.39 0.33 0.27 0.25 0.23 0.19 0.15 0.18 0.23
0.90 1.05 0.96 0.78 0.85 1.02 0.72 0.45 0.38 0.36 0.33 0.34 0.22 0.34 0.44 0.40 0.37 0.47 0.64 0.83 0.97 0.90 0.74 0.61 0.57 0.56 0.60 0.72 0.80 0.97 1.02 0.85 0.70 0.66 0.63 0.59 0.57 0.59 0.59 0.55 0.46 0.38 0.37 0.34 0.29 0.23 0.19 0.20 0.22
0.74 0.74 0.71 0.74 0.84 1.04 0.65 0.37 0.26 0.24 0.26 0.27 0.24 0.32 0.44 0.43 0.44 0.55 0.69 0.84 0.88 0.87 0.85 0.80 0.79 0.74 0.73 0.76 0.93 1.21 1.34 1.16 0.89 0.76 0.70 0.68 0.61 0.58 0.60 0.52 0.49 0.47 0.47 0.46 0.42 0.34 0.27 0.24 0.23
0.65 0.64 0.73 0.91 0.87 0.81 0.50 0.30 0.18 0.14 0.19 0.21 0.16 0.23 0.31 0.31 0.39 0.57 0.73 0.81 0.83 0.81 0.82 0.81 0.84 0.88 0.99 1.01 1.07 1.32 1.48 1.44 1.08 0.87 0.83 0.73 0.55 0.65 0.67 0.51 0.59 0.60 0.65 0.63 0.57 0.45 0.38 0.34 0.27
0.67 0.64 0.71 0.73 0.64 0.47 0.35 0.26 0.19 0.18 0.20 0.18 0.17 0.21 0.24 0.31 0.39 0.50 0.59 0.63 0.67 0.70 0.71 0.72 0.74 0.74 0.80 0.86 1.18 1.39 1.31 1.38 1.10 1.05 0.96 0.86 0.86 0.88 0.74 0.62 0.69 0.76 0.81 0.73 0.65 0.60 0.49 0.34 0.21
0.65 0.65 0.52 0.47 0.40 0.27 0.24 0.22 0.20 0.20 0.20 0.16 0.15 0.18 0.22 0.31 0.39 0.40 0.44 0.48 0.52 0.56 0.50 0.47 0.52 0.53 0.58 0.67 0.85 1.13 1.39 1.44 1.40 1.34 1.24 1.16 1.05 0.86 0.74 0.69 0.65 0.70 0.75 0.66 0.67 0.62 0.45 0.32 0.24
0.63 0.58 0.45 0.37 0.25 0.25 0.22 0.17 0.17 0.17 0.15 0.11 0.12 0.18 0.25 0.33 0.38 0.40 0.42 0.44 0.49 0.57 0.57 0.48 0.42 0.46 0.46 0.50 0.64 0.88 1.11 1.26 1.28 1.19 1.10 1.26 1.18 0.94 0.83 0.87 0.86 0.80 0.80 0.86 0.83 0.69 0.54 0.40 0.31
0.58 0.61 0.42 0.29 0.26 0.28 0.20 0.15 0.13 0.13 0.12 0.11 0.13 0.22 0.34 0.41 0.45 0.45 0.45 0.48 0.52 0.56 0.62 0.56 0.43 0.37 0.42 0.45 0.51 0.60 0.84 1.00 1.00 1.13 1.09 1.13 1.09 0.95 0.85 0.85 0.97 0.92 0.88 0.93 0.96 0.78 0.64 0.53 0.43
0.60 0.54 0.40 0.26 0.25 0.24 0.21 0.15 0.15 0.16 0.14 0.15 0.19 0.28 0.37 0.45 0.49 0.49 0.48 0.49 0.49 0.50 0.53 0.54 0.49 0.47 0.46 0.43 0.43 0.48 0.54 0.71 0.74 0.75 0.73 0.93 1.02 1.00 1.00 0.88 0.95 1.07 1.09 1.03 0.97 0.88 0.71 0.59 0.51
0.41 0.31 0.27 0.26 0.29 0.24 0.22 0.19 0.17 0.18 0.16 0.16 0.19 0.24 0.33 0.43 0.47 0.49 0.46 0.42 0.42 0.44 0.44 0.47 0.54 0.58 0.57 0.57 0.57 0.54 0.55 0.58 0.65 0.72 0.73 0.85 0.94 1.01 1.01 0.87 0.90 1.03 1.20 1.15 1.04 0.93 0.84 0.61 0.48
0.32 0.33 0.40 0.33 0.36 0.36 0.30 0.19 0.18 0.21 0.19 0.16 0.14 0.16 0.19 0.24 0.31 0.40 0.40 0.36 0.35 0.34 0.33 0.38 0.45 0.52 0.58 0.62 0.66 0.62 0.66 0.67 0.65 0.70 0.68 0.72 0.87 1.02 1.08 0.97 0.92 1.06 1.23 1.35 1.35 1.15 1.01 0.80 0.61
0.34 0.36 0.40 0.36 0.33 0.32 0.27 0.21 0.21 0.17 0.16 0.13 0.11 0.10 0.12 0.14 0.19 0.26 0.29 0.29 0.28 0.27 0.26 0.29 0.34 0.41 0.48 0.57 0.65 0.67 0.69 0.83 0.91 0.79 0.65 0.72 0.85 0.95 1.12 1.16 1.11 1.13 1.26 1.30 1.33 1.27 1.05 0.94 0.82
0.33 0.31 0.30 0.30 0.23 0.16 0.16 0.16 0.15 0.08 0.06 0.06 0.07 0.06 0.06 0.08 0.11 0.18 0.21 0.22 0.23 0.24 0.23 0.25 0.31 0.33 0.36 0.47 0.64 0.73 0.70 0.80 1.01 1.04 1.01 1.04 1.11 1.17 1.30 1.35 1.33 1.31 1.33 1.27 1.36 1.49 1.22 1.00 0.98
0.34 0.25 0.15 0.11 0.10 0.08 0.06 0.06 0.08 0.05 0.04 0.05 0.06 0.05 0.05 0.05 0.06 0.09 0.12 0.15 0.17 0.17 0.19 0.23 0.29 0.32 0.34 0.42 0.53 0.62 0.72 0.90 1.11 1.17 1.22 1.35 1.36 1.38 1.51 1.60 1.61 1.51 1.38 1.37 1.51 1.79 1.65 1.28 1.11
0.18 0.09 0.05 0.04 0.03 0.03 0.02 0.03 0.05 0.06 0.06 0.05 0.05 0.05 0.04 0.05 0.04 0.05 0.07 0.10 0.11 0.10 0.12 0.17 0.26 0.35 0.41 0.47 0.62 0.77 0.99 1.11 1.25 1.40 1.39 1.41 1.46 1.48 1.55 1.73 1.82 1.73 1.68 1.74 1.71 1.84 1.93 1.69 1.44
0.10 0.06 0.03 0.02 0.02 0.02 0.02 0.02 0.04 0.06 0.07 0.08 0.07 0.07 0.06 0.04 0.04 0.04 0.04 0.06 0.09 0.08 0.10 0.17 0.31 0.50 0.70 0.82 1.05 1.33 1.58 1.66 1.58 1.57 1.61 1.59 1.63 1.68 1.64 1.74 1.93 1.87 1.80 1.79 1.91 2.09 2.26 2.15 1.93
0.05 0.02 0.01 0.01 0.02 0.01 0.01 0.02 0.04 0.10 0.14 0.15 0.14 0.13 0.11 0.11 0.09 0.07 0.08 0.08 0.09 0.12 0.20 0.36 0.61 0.91 1.16 1.32 1.51 1.72 1.83 1.87 1.80 1.81 1.79 1.77 1.68 1.60 1.58 1.70 1.90 2.02 2.09 2.10 2.15 2.11 2.30 2.40 2.19
0.02 0.01 0.01 0.01 0.01 0.00 0.00 0.02 0.07 0.16 0.24 0.27 0.28 0.27 0.25 0.24 0.18 0.19 0.21 0.22 0.28 0.39 0.57 0.86 1.12 1.37 1.52 1.58 1.68 1.88 2.03 2.19 2.20 2.08 1.93 1.81 1.76 1.68 1.60 1.63 1.70 1.75 1.82 1.92 2.05 2.08 2.22 2.27 2.32
0.03 0.03 0.03 0.02 0.02 0.01 0.01 0.05 0.16 0.26 0.31 0.36 0.38 0.34 0.32 0.30 0.29 0.35 0.45 0.55 0.70 0.82 1.00 1.20 1.35 1.50 1.51 1.52 1.58 1.71 1.90 2.06 2.08 2.09 2.05 1.92 1.76 1.66 1.57 1.52 1.60 1.63 1.63 1.74 1.85 1.92 2.09 2.20 2.27
0.03 0.08 0.07 0.05 0.05 0.05 0.06 0.18 0.27 0.26 0.27 0.33 0.36 0.35 0.34 0.34 0.41 0.57 0.72 0.86 0.98 1.09 1.19 1.22 1.22 1.27 1.30 1.32 1.36 1.44 1.50 1.53 1.59 1.70 1.62 1.48 1.35 1.30 1.30 1.23 1.28 1.40 1.45 1.63 1.69 1.62 1.65 1.79 1.93
0.02 0.05 0.10 0.09 0.08 0.11 0.15 0.36 0.40 0.31 0.25 0.25 0.27 0.33 0.43 0.57 0.68 0.77 0.88 0.97 1.01 1.14 1.20 1.16 1.13 1.12 1.06 1.00 1.05 1.07 1.11 1.17 1.20 1.22 1.17 1.09 1.04 1.00 0.96 0.96 0.97 1.02 1.11 1.31 1.51 1.49 1.50 1.56 1.62
0.01 0.03 0.09 0.18 0.14 0.13 0.20 0.44 0.44 0.29 0.23 0.22 0.24 0.32 0.48 0.70 0.94 1.08 1.08 0.99 0.90 0.94 1.02 1.01 0.97 0.92 0.84 0.78 0.82 0.85 0.92 0.94 0.93 0.91 0.86 0.84 0.78 0.78 0.75 0.78 0.85 0.89 0.89 0.99 1.11 1.29 1.36 1.41 1.48
0.02 0.05 0.13 0.23 0.22 0.23 0.31 0.47 0.43 0.32 0.28 0.25 0.30 0.40 0.58 0.80 1.00 1.24 1.38 1.27 1.00 0.80 0.82 0.79 0.76 0.80 0.79 0.75 0.77 0.77 0.70 0.64 0.66 0.69 0.63 0.62 0.66 0.70 0.70 0.66 0.67 0.72 0.72 0.82 0.92 0.98 1.10 1.17 1.30
0.04 0.10 0.16 0.20 0.23 0.34 0.56 0.70 0.60 0.49 0.44 0.43 0.47 0.54 0.61 0.88 1.17 1.31 1.36 1.23 1.05 0.78 0.69 0.68 0.66 0.70 0.76 0.70 0.72 0.71 0.61 0.49 0.47 0.47 0.45 0.44 0.48 0.54 0.55 0.57 0.63 0.62 0.63 0.64 0.64 0.69 0.76 0.82 0.92
0.11 0.19 0.27 0.35 0.39 0.41 0.54 0.65 0.53 0.55 0.61 0.56 0.60 0.70 0.72 0.78 0.83 0.85 0.96 0.97 0.91 0.78 0.71 0.75 0.80 0.79 0.71 0.65 0.62 0.58 0.51 0.44 0.43 0.41 0.38 0.39 0.44 0.46 0.47 0.52 0.57 0.56 0.61 0.63 0.62 0.61 0.61 0.68 0.77